Location: Unspecified
(48.7670°N, 0.0000°E)
Time: 03:40:16
(UTC+00:00)

Vanguard 2 Rocket - Pass Details

Date: 08 October 2020
Orbit: 554 x 3326 km, 32.9° (Epoch: 26 October)

Event Time Altitude Azimuth Distance (km) Brightness Sun altitude
Exits shadow 00:05:08 23° 112° (ESE) 4,824 10.3 -47.1°
Drops below altitude 10° 00:11:40 10° 99° (E) 6,120 11.0 -46.9°
Sets 00:17:24 0° 92° (E) 7,286 11.6 -46.8°
